{"data":{"norad_id":63208,"intl_designator":"2025-051A","name":"SUPERVIEW NEO-3 02","alt_names":[],"object_type":"PAYLOAD","status":"ACTIVE","operator":null,"country":"PRC","launch_date":"2025-03-15","launch_site_code":"JSC","launch_vehicle":null,"mission":null,"orbit_class":"UNKNOWN","rcs_meters":null,"size_class":null,"mass_kg":null,"dimensions":null,"purposes":[],"wikipedia_slug":null,"has_3d_model":false,"image_url":null,"decayed_at":null,"tle_current":{"epoch":"2026-05-25T05:18:09.798336Z","epoch_age_seconds":52020,"freshness":"FRESH","line1":"1 63208U 25051A   26145.22094674  .00009963  00000+0  40621-3 0  9996","line2":"2 63208  97.4515 224.6445 0001152 136.4589 223.6739 15.24646948 66344","mean_motion":15.24646948,"eccentricity":0.0001152,"inclination_deg":97.4515,"raan_deg":224.6445,"arg_perigee_deg":136.4589,"mean_anomaly_deg":223.6739,"bstar":0.00040621,"rev_number":6634,"period_min":94.448095140253,"perigee_km":491.05436354898,"apogee_km":492.63720758277,"semimajor_km":6869.9827855659,"source":"CELESTRAK","updated_at":"2026-05-25T13:38:03.573060Z"}}}